Location: Saratoga Springs
(43.0831°N, 73.7850°W)
Time: 16:26:06
(UTC-04:00)

Tiros 1 - Pass Details

Date: 23 April 2024
Orbit: 624 x 657 km, 48.4° (Epoch: 28 May)

Event Time Altitude Azimuth Distance (km) Brightness Sun altitude
Rises 07:17:51 0° 280° (W) 2,902 9.9 13.1°
Maximum altitude 07:23:05 11° 230° (SW) 1,954 9.2 14.1°
Drops below altitude 10° 07:23:57 10° 219° (SW) 1,985 9.3 14.2°
Sets 07:28:19 0° 179° (S) 2,888 10.5 15.0°
